Hourly Data Report for July 12, 2006

TORONTO CITY
ONTARIO

43°40'00.000" N
79°24'00.000" W
112.50 m
6158355
71508
XTO

Download Data

Hourly Data (July 2006)
Hourly Data Report for July 12, 2006
TIME
LST
Temp Definition
°C
Dew Point Definition
°C
Rel Hum Definition
%
Precip. Amount Definition
mm

Wind Dir Definition
10's deg

Wind Spd Definition
km/h
Visibility Definition
km
Stn Press Definition
kPa
Hmdx Definition


Wind Chill Definition


Weather Definition


00:00 21.4 16.0 71   LegendMM LegendMM   100.28 26   LegendNANA
01:00 21.7 17.6 78   LegendMM LegendMM   100.22 27   LegendNANA
02:00 21.7 18.6 83   LegendMM LegendMM   100.14 28   LegendNANA
03:00 21.3 18.2 82   LegendMM LegendMM   100.10 27   LegendNANA
04:00 20.8 18.4 86   LegendMM LegendMM   100.08 27   LegendNANA
05:00 19.9 18.8 93   LegendMM LegendMM   100.06     LegendNANA
06:00 19.9 19.3 96   LegendMM LegendMM   100.01     LegendNANA
07:00 19.6 19.3 98   LegendMM LegendMM   99.96     LegendNANA
08:00 19.8 19.6 99   LegendMM LegendMM   99.92     LegendNANA
09:00 19.9 19.8 99   LegendMM LegendMM   99.86     LegendNANA
10:00 20.0 19.9 99   LegendMM LegendMM   99.85 27   LegendNANA
11:00 20.3 20.2 99   LegendMM LegendMM   99.83 28   LegendNANA
12:00 20.6 20.5 99   LegendMM LegendMM   99.79 29   LegendNANA
13:00 21.2 21.1 99   LegendMM LegendMM   99.80 30   LegendNANA
14:00 21.1 20.8 98   LegendMM LegendMM   99.82 29   LegendNANA
15:00 21.2 20.8 98   LegendMM LegendMM   99.84 29   LegendNANA
16:00 22.8 22.1 96   LegendMM LegendMM   99.84 32   LegendNANA
17:00 23.1 21.6 91   LegendMM LegendMM   99.83 32   LegendNANA
18:00 22.3 21.5 95   LegendMM LegendMM   99.84 31   LegendNANA
19:00 22.7 21.4 92   LegendMM LegendMM   99.88 31   LegendNANA
20:00 22.3 20.3 88   LegendMM LegendMM   99.93 30   LegendNANA
21:00 21.9 20.2 90   LegendMM LegendMM   100.00 30   LegendNANA
22:00 21.0 19.9 93   LegendMM LegendMM   100.02 28   LegendNANA
23:00 21.2 19.3 89   LegendMM LegendMM   100.02 28   LegendNANA

Notes on Data Quality.

Legend

  • E = Estimated
  • M = Missing
  • NA = Not Available*
  • [empty] = Indicates an unobserved value
Date modified: